Time,TemperatureF,DewpointF,PressureIn,WindDirection,WindDirectionDegrees,WindSpeedMPH,WindSpeedGustMPH,Humidity,HourlyPrecipIn,Conditions,Clouds,dailyrainin,SoftwareType,DateUTC
2017-04-25 00:00:00,48.5,46.3,30.18,SSW,202,1.0,2.0,92,0.00,,,0.00,VWS V12.08,2017-04-25 04:00:00,
2017-04-25 00:05:00,48.5,46.0,30.18,NNE,24,2.0,2.0,91,0.00,,,0.00,VWS V12.08,2017-04-25 04:05:00,
2017-04-25 00:30:00,48.1,45.6,30.17,South,172,0.0,4.0,91,0.00,,,0.00,VWS V12.08,2017-04-25 04:30:00,
2017-04-25 00:40:00,48.0,45.5,30.17,NNE,13,0.0,2.0,91,0.00,,,0.00,VWS V12.08,2017-04-25 04:40:00,
2017-04-25 01:05:00,47.9,45.7,30.17,SSW,205,1.0,2.0,92,0.00,,,0.00,VWS V12.08,2017-04-25 05:05:00,
2017-04-25 01:30:00,47.9,45.7,30.17,South,174,0.0,2.0,92,0.00,,,0.00,VWS V12.08,2017-04-25 05:30:00,
2017-04-25 01:35:00,47.9,45.7,30.18,South,171,0.0,0.0,92,0.00,,,0.00,VWS V12.08,2017-04-25 05:35:00,
2017-04-25 02:01:00,47.9,45.7,30.17,East,82,0.0,3.0,92,0.00,,,0.00,VWS V12.08,2017-04-25 06:01:00,
2017-04-25 02:10:00,47.9,45.7,30.17,SE,128,0.0,1.0,92,0.00,,,0.00,VWS V12.08,2017-04-25 06:10:00,
2017-04-25 02:31:00,47.8,45.6,30.17,NNE,33,0.0,1.0,92,0.00,,,0.00,VWS V12.08,2017-04-25 06:31:00,
2017-04-25 02:40:00,47.7,45.5,30.17,NE,46,0.0,0.0,92,0.00,,,0.00,VWS V12.08,2017-04-25 06:40:00,
2017-04-25 03:01:00,47.6,45.7,30.17,ENE,67,0.0,3.0,93,0.00,,,0.00,VWS V12.08,2017-04-25 07:01:00,
2017-04-25 03:10:00,47.6,45.7,30.17,East,80,0.0,1.0,93,0.00,,,0.00,VWS V12.08,2017-04-25 07:10:00,
2017-04-25 03:31:00,47.7,46.1,30.17,South,180,1.0,2.0,94,0.00,,,0.00,VWS V12.08,2017-04-25 07:31:00,
2017-04-25 03:40:00,47.8,45.9,30.17,South,190,0.0,2.0,93,0.00,,,0.00,VWS V12.08,2017-04-25 07:40:00,
2017-04-25 04:01:00,47.9,46.0,30.16,SW,221,0.0,4.0,93,0.00,,,0.00,VWS V12.08,2017-04-25 08:01:00,
2017-04-25 04:10:00,47.8,45.9,30.16,SW,236,0.0,2.0,93,0.00,,,0.00,VWS V12.08,2017-04-25 08:10:00,
2017-04-25 04:31:00,47.7,45.8,30.16,SSE,160,1.0,2.0,93,0.00,,,0.00,VWS V12.08,2017-04-25 08:31:00,
2017-04-25 04:41:00,47.7,45.8,30.17,South,190,0.0,2.0,93,0.00,,,0.00,VWS V12.08,2017-04-25 08:41:00,
2017-04-25 05:00:00,47.7,45.8,30.17,South,185,0.0,2.0,93,0.00,,,0.00,VWS V12.08,2017-04-25 09:00:00,
2017-04-25 05:06:00,47.6,46.0,30.17,North,355,2.0,3.0,94,0.00,,,0.00,VWS V12.08,2017-04-25 09:06:00,
2017-04-25 05:11:00,47.6,46.0,30.17,ENE,65,0.0,3.0,94,0.00,,,0.00,VWS V12.08,2017-04-25 09:11:00,
2017-04-25 05:30:00,47.6,46.0,30.17,South,191,0.0,3.0,94,0.00,,,0.00,VWS V12.08,2017-04-25 09:30:00,
2017-04-25 05:40:00,47.5,45.9,30.17,SSE,148,1.0,2.0,94,0.00,,,0.00,VWS V12.08,2017-04-25 09:40:00,
2017-04-25 05:59:00,47.3,45.7,30.17,SE,126,0.0,2.0,94,0.00,,,0.00,VWS V12.08,2017-04-25 09:59:00,
2017-04-25 06:10:00,47.2,45.6,30.17,SSW,194,1.0,4.0,94,0.00,,,0.00,VWS V12.08,2017-04-25 10:10:00,
2017-04-25 06:30:00,47.1,45.5,30.18,West,266,1.0,4.0,94,0.01,,,0.01,VWS V12.08,2017-04-25 10:30:00,
2017-04-25 06:35:00,47.1,45.5,30.18,ESE,111,0.0,2.0,94,0.01,,,0.01,VWS V12.08,2017-04-25 10:35:00,
2017-04-25 06:59:00,47.1,45.7,30.18,East,86,1.0,2.0,95,0.01,,,0.01,VWS V12.08,2017-04-25 10:59:00,
2017-04-25 07:05:00,47.1,45.7,30.18,North,355,0.0,3.0,95,0.01,,,0.01,VWS V12.08,2017-04-25 11:05:00,
2017-04-25 07:10:00,47.2,45.8,30.19,SSE,163,0.0,3.0,95,0.01,,,0.01,VWS V12.08,2017-04-25 11:10:00,
2017-04-25 07:30:00,47.4,46.0,30.19,West,276,0.0,3.0,95,0.01,,,0.01,VWS V12.08,2017-04-25 11:30:00,
2017-04-25 07:35:00,47.6,46.2,30.19,WSW,249,2.0,2.0,95,0.00,,,0.01,VWS V12.08,2017-04-25 11:35:00,
2017-04-25 08:00:00,48.0,46.4,30.20,South,188,0.0,3.0,94,0.00,,,0.01,VWS V12.08,2017-04-25 12:00:00,
2017-04-25 08:10:00,48.1,46.5,30.20,SSW,193,0.0,2.0,94,0.00,,,0.01,VWS V12.08,2017-04-25 12:10:00,
2017-04-25 08:30:00,48.3,46.7,30.21,SSE,163,0.0,4.0,94,0.00,,,0.01,VWS V12.08,2017-04-25 12:30:00,
2017-04-25 08:40:00,48.6,47.0,30.21,SSE,165,4.0,4.0,94,0.00,,,0.01,VWS V12.08,2017-04-25 12:40:00,
2017-04-25 09:01:00,48.9,47.0,30.22,SE,143,1.0,4.0,93,0.00,,,0.01,VWS V12.08,2017-04-25 13:01:00,
2017-04-25 09:10:00,49.0,46.8,30.21,SSW,201,1.0,3.0,92,0.00,,,0.01,VWS V12.08,2017-04-25 13:10:00,
2017-04-25 09:31:00,49.2,47.3,30.21,East,92,2.0,3.0,93,0.00,,,0.01,VWS V12.08,2017-04-25 13:31:00,
2017-04-25 09:40:00,49.5,47.6,30.21,South,186,0.0,4.0,93,0.00,,,0.01,VWS V12.08,2017-04-25 13:40:00,
2017-04-25 10:01:00,49.8,47.6,30.21,SSW,206,3.0,4.0,92,0.00,,,0.01,VWS V12.08,2017-04-25 14:01:00,
2017-04-25 10:10:00,49.8,47.9,30.21,South,191,1.0,4.0,93,0.00,,,0.01,VWS V12.08,2017-04-25 14:10:00,
2017-04-25 10:30:00,49.4,47.5,30.20,South,188,3.0,4.0,93,0.03,,,0.05,VWS V12.08,2017-04-25 14:30:00,
2017-04-25 10:36:00,49.3,47.7,30.19,South,191,1.0,3.0,94,0.05,,,0.06,VWS V12.08,2017-04-25 14:36:00,
2017-04-25 11:00:00,49.0,47.6,30.20,SSW,198,1.0,3.0,95,0.08,,,0.09,VWS V12.08,2017-04-25 15:00:00,
2017-04-25 11:05:00,49.0,47.6,30.19,SSW,194,0.0,2.0,95,0.10,,,0.11,VWS V12.08,2017-04-25 15:05:00,
2017-04-25 11:11:00,48.8,47.4,30.19,SSE,150,0.0,3.0,95,0.11,,,0.12,VWS V12.08,2017-04-25 15:11:00,
2017-04-25 11:32:00,48.4,47.0,30.19,NNW,331,0.0,3.0,95,0.13,,,0.14,VWS V12.08,2017-04-25 15:32:00,
2017-04-25 11:41:00,48.4,47.3,30.18,ESE,122,1.0,5.0,96,0.09,,,0.14,VWS V12.08,2017-04-25 15:41:00,
2017-04-25 12:00:00,48.3,46.9,30.18,SW,227,1.0,5.0,95,0.09,,,0.14,VWS V12.08,2017-04-25 16:00:00,
2017-04-25 12:11:00,48.2,47.1,30.17,South,182,2.0,3.0,96,0.05,,,0.14,VWS V12.08,2017-04-25 16:11:00,
2017-04-25 12:31:00,48.2,47.1,30.17,ENE,72,2.0,3.0,96,0.06,,,0.15,VWS V12.08,2017-04-25 16:31:00,
2017-04-25 13:00:00,48.3,47.5,30.16,SE,144,1.0,4.0,97,0.21,,,0.35,VWS V12.08,2017-04-25 17:00:00,
2017-04-25 13:10:00,48.5,47.4,30.16,SSE,167,1.0,4.0,96,0.22,,,0.36,VWS V12.08,2017-04-25 17:10:00,
2017-04-25 13:31:00,48.6,47.8,30.16,North,360,0.0,4.0,97,0.22,,,0.37,VWS V12.08,2017-04-25 17:31:00,
2017-04-25 13:41:00,48.8,48.0,30.15,East,84,0.0,4.0,97,0.22,,,0.37,VWS V12.08,2017-04-25 17:41:00,
2017-04-25 14:01:00,48.9,48.1,30.15,SSE,165,1.0,4.0,97,0.22,,,0.37,VWS V12.08,2017-04-25 18:01:00,
2017-04-25 14:30:00,49.2,48.4,30.14,SE,136,1.0,5.0,97,0.02,,,0.37,VWS V12.08,2017-04-25 18:30:00,
2017-04-25 14:40:00,49.3,48.5,30.14,ESE,118,1.0,2.0,97,0.00,,,0.37,VWS V12.08,2017-04-25 18:40:00,
2017-04-25 15:00:00,49.7,48.9,30.13,SW,221,1.0,5.0,97,0.00,,,0.37,VWS V12.08,2017-04-25 19:00:00,